sat.trackr.live / text

‹ back to catalog

STARLINK-1270

NORAD 45237 · 2020-012BM

PAYLOAD ACTIVE UNKNOWN

§ Identity

Operator
Country
US
Launch date
2020-02-17
Launch site
AFETR
Launch vehicle
Mass (kg)
RCS (m²)

Purposes: comms

External: N2YO · Heavens-Above · Gunter

§ Orbital elements

Epoch: 2026-09-20T04:07:38.154432Z

Period
91.01 min
Inclination
53.0349°
Eccentricity
0.0004485
Mean motion
15.82285644 rev/d
Perigee alt
321.0 km
Apogee alt
327.0 km
Semi-major
6,702.1 km
B*
3.8643e-4
RAAN
112.9283°
Arg perigee
147.8077°
Mean anomaly
212.3219°
Rev number
36,612

§ Raw data

STARLINK-12701 45237U 20012BM  26263.17196938  .00081549  00000+0  38643-3 0  99922 45237  53.0349 112.9283 0004485 147.8077 212.3219 15.82285644366121

JSON: /api/v1/satellites/45237 · /tle

For live sub-satellite position, see the globe view (requires WebGL).

§ Visibility from observer

Set your observer location to see the next 7 days of passes ≥ 10°. The values pass through the URL so the page stays shareable.

No JS? Fill the form by hand. The geolocation button needs JavaScript.